Time,TemperatureF,DewpointF,PressureIn,WindDirection,WindDirectionDegrees,WindSpeedMPH,WindSpeedGustMPH,Humidity,HourlyPrecipIn,Conditions,Clouds,dailyrainin,SoftwareType,DateUTC
2013-03-18 00:00:00,30.0,28.7,29.77,SSE,153,11.0,11.0,95,0.00,,,0.00,Wunderground v.1.15,2013-03-18 05:00:00,
2013-03-18 00:02:00,29.9,28.6,29.77,SE,143,11.0,12.0,95,0.00,,,0.00,Wunderground v.1.15,2013-03-18 05:02:00,
2013-03-18 00:08:00,29.8,28.5,29.76,SE,136,12.0,12.0,95,0.00,,,0.00,Wunderground v.1.15,2013-03-18 05:08:00,
2013-03-18 00:14:00,29.7,28.4,29.76,SE,133,12.0,15.0,95,0.00,,,0.00,Wunderground v.1.15,2013-03-18 05:14:00,
2013-03-18 00:16:00,29.7,28.4,29.75,SSE,161,11.0,15.0,95,0.00,,,0.00,Wunderground v.1.15,2013-03-18 05:16:00,
2013-03-18 00:20:00,29.7,28.4,29.75,SSE,155,12.0,12.0,95,0.00,,,0.00,Wunderground v.1.15,2013-03-18 05:20:00,
2013-03-18 00:22:00,29.6,28.3,29.75,SE,141,11.0,12.0,95,0.00,,,0.00,Wunderground v.1.15,2013-03-18 05:22:00,
2013-03-18 00:24:00,29.6,28.3,29.75,SE,135,11.0,15.0,95,0.00,,,0.00,Wunderground v.1.15,2013-03-18 05:24:00,
2013-03-18 00:28:00,29.6,28.3,29.74,SE,132,12.0,15.0,95,0.00,,,0.00,Wunderground v.1.15,2013-03-18 05:28:00,
2013-03-18 00:32:00,29.6,28.3,29.74,SSE,148,12.0,12.0,95,0.00,,,0.00,Wunderground v.1.15,2013-03-18 05:32:00,
2013-03-18 00:34:00,29.7,28.4,29.73,SE,139,13.0,13.0,95,0.00,,,0.00,Wunderground v.1.15,2013-03-18 05:34:00,
2013-03-18 00:36:00,29.7,28.4,29.73,SE,136,12.0,13.0,95,0.00,,,0.00,Wunderground v.1.15,2013-03-18 05:36:00,
2013-03-18 00:38:00,29.7,28.4,29.73,SE,136,12.0,13.0,95,0.00,,,0.00,Wunderground v.1.15,2013-03-18 05:38:00,
2013-03-18 00:40:00,29.7,28.2,29.73,ESE,120,13.0,15.0,94,0.00,,,0.00,Wunderground v.1.15,2013-03-18 05:40:00,
2013-03-18 00:44:00,29.7,28.2,29.73,SE,136,13.0,15.0,94,0.00,,,0.00,Wunderground v.1.15,2013-03-18 05:44:00,
2013-03-18 00:48:00,29.7,28.2,29.72,SSE,155,13.0,15.0,94,0.00,,,0.00,Wunderground v.1.15,2013-03-18 05:48:00,
2013-03-18 00:50:00,29.7,28.2,29.73,SE,142,13.0,13.0,94,0.00,,,0.00,Wunderground v.1.15,2013-03-18 05:50:00,
2013-03-18 00:56:00,29.7,28.2,29.72,SSE,155,12.0,16.0,94,0.00,,,0.00,Wunderground v.1.15,2013-03-18 05:56:00,
2013-03-18 01:00:00,29.7,28.2,29.72,SE,142,13.0,14.0,94,0.00,,,0.00,Wunderground v.1.15,2013-03-18 06:00:00,
2013-03-18 01:04:00,29.6,28.1,29.71,SSE,150,14.0,16.0,94,0.00,,,0.00,Wunderground v.1.15,2013-03-18 06:04:00,
2013-03-18 01:06:00,29.7,28.2,29.71,SE,132,14.0,16.0,94,0.00,,,0.00,Wunderground v.1.15,2013-03-18 06:06:00,
2013-03-18 01:08:00,29.6,28.1,29.71,ESE,117,14.0,16.0,94,0.00,,,0.00,Wunderground v.1.15,2013-03-18 06:08:00,
2013-03-18 01:12:00,29.6,28.1,29.71,SSE,153,14.0,16.0,94,0.00,,,0.00,Wunderground v.1.15,2013-03-18 06:12:00,
2013-03-18 01:14:00,29.6,28.1,29.70,SE,138,14.0,16.0,94,0.00,,,0.00,Wunderground v.1.15,2013-03-18 06:14:00,
2013-03-18 01:16:00,29.6,28.1,29.70,SE,141,13.0,16.0,94,0.00,,,0.00,Wunderground v.1.15,2013-03-18 06:16:00,
2013-03-18 01:20:00,29.6,28.1,29.70,ESE,122,14.0,14.0,94,0.00,,,0.00,Wunderground v.1.15,2013-03-18 06:20:00,
2013-03-18 01:22:00,29.6,28.1,29.69,SE,129,14.0,16.0,94,0.00,,,0.00,Wunderground v.1.15,2013-03-18 06:22:00,
2013-03-18 01:26:00,29.5,28.0,29.69,SE,141,14.0,17.0,94,0.00,,,0.00,Wunderground v.1.15,2013-03-18 06:26:00,
2013-03-18 01:28:00,29.5,28.0,29.69,SE,134,14.0,17.0,94,0.00,,,0.00,Wunderground v.1.15,2013-03-18 06:28:00,
2013-03-18 01:30:00,29.6,28.1,29.69,SE,136,14.0,14.0,94,0.00,,,0.00,Wunderground v.1.15,2013-03-18 06:30:00,
2013-03-18 01:34:00,29.5,28.0,29.69,SSE,163,14.0,16.0,94,0.00,,,0.00,Wunderground v.1.15,2013-03-18 06:34:00,
2013-03-18 01:38:00,29.5,28.0,29.69,SE,135,14.0,16.0,94,0.00,,,0.00,Wunderground v.1.15,2013-03-18 06:38:00,
2013-03-18 01:42:00,29.6,28.1,29.70,SE,131,14.0,16.0,94,0.00,,,0.00,Wunderground v.1.15,2013-03-18 06:42:00,
2013-03-18 01:44:00,29.5,28.0,29.70,SE,128,14.0,16.0,94,0.00,,,0.00,Wunderground v.1.15,2013-03-18 06:44:00,
2013-03-18 01:46:00,29.6,28.1,29.70,SE,143,13.0,16.0,94,0.00,,,0.00,Wunderground v.1.15,2013-03-18 06:46:00,
2013-03-18 01:50:00,29.5,28.2,29.70,SE,135,13.0,16.0,95,0.00,,,0.00,Wunderground v.1.15,2013-03-18 06:50:00,
2013-03-18 01:52:00,29.5,28.2,29.69,SE,143,13.0,16.0,95,0.00,,,0.00,Wunderground v.1.15,2013-03-18 06:52:00,
2013-03-18 01:54:00,29.5,28.2,29.69,SE,142,13.0,16.0,95,0.00,,,0.00,Wunderground v.1.15,2013-03-18 06:54:00,
2013-03-18 01:58:00,29.5,28.2,29.69,SE,135,13.0,16.0,95,0.00,,,0.00,Wunderground v.1.15,2013-03-18 06:58:00,
2013-03-18 02:00:00,29.4,28.1,29.69,ESE,115,13.0,16.0,95,0.00,,,0.00,Wunderground v.1.15,2013-03-18 07:00:00,
2013-03-18 02:08:00,29.5,28.2,29.68,SE,135,13.0,16.0,95,0.00,,,0.00,Wunderground v.1.15,2013-03-18 07:08:00,
2013-03-18 02:14:00,29.6,28.6,29.67,SE,146,13.0,16.0,96,0.00,,,0.00,Wunderground v.1.15,2013-03-18 07:14:00,
2013-03-18 02:18:00,29.8,28.8,29.68,SE,142,13.0,16.0,96,0.00,,,0.00,Wunderground v.1.15,2013-03-18 07:18:00,
2013-03-18 02:20:00,29.8,28.8,29.68,SSE,167,13.0,13.0,96,0.00,,,0.00,Wunderground v.1.15,2013-03-18 07:20:00,
2013-03-18 02:22:00,29.9,28.9,29.69,SE,143,12.0,16.0,96,0.00,,,0.00,Wunderground v.1.15,2013-03-18 07:22:00,
2013-03-18 02:30:00,30.0,29.0,29.69,SE,131,11.0,16.0,96,0.00,,,0.00,Wunderground v.1.15,2013-03-18 07:30:00,
2013-03-18 02:32:00,30.0,29.0,29.70,SE,145,11.0,16.0,96,0.00,,,0.00,Wunderground v.1.15,2013-03-18 07:32:00,
2013-03-18 02:34:00,29.9,28.9,29.70,SSE,148,11.0,16.0,96,0.00,,,0.00,Wunderground v.1.15,2013-03-18 07:34:00,
2013-03-18 02:40:00,29.9,28.9,29.70,SSE,149,11.0,11.0,96,0.00,,,0.00,Wunderground v.1.15,2013-03-18 07:40:00,
2013-03-18 02:42:00,29.9,28.9,29.70,SE,143,11.0,16.0,96,0.00,,,0.00,Wunderground v.1.15,2013-03-18 07:42:00,
2013-03-18 02:44:00,29.8,28.8,29.70,SE,132,11.0,16.0,96,0.00,,,0.00,Wunderground v.1.15,2013-03-18 07:44:00,
2013-03-18 02:46:00,29.8,28.8,29.70,SSE,157,10.0,16.0,96,0.00,,,0.00,Wunderground v.1.15,2013-03-18 07:46:00,
2013-03-18 02:52:00,29.8,28.8,29.72,SE,145,8.0,16.0,96,0.00,,,0.00,Wunderground v.1.15,2013-03-18 07:52:00,
2013-03-18 02:54:00,29.8,28.8,29.72,SSE,159,8.0,16.0,96,0.00,,,0.00,Wunderground v.1.15,2013-03-18 07:54:00,
2013-03-18 02:58:00,29.8,28.8,29.72,SSE,163,7.0,16.0,96,0.00,,,0.00,Wunderground v.1.15,2013-03-18 07:58:00,
2013-03-18 03:04:00,29.8,28.8,29.72,SSE,158,7.0,16.0,96,0.00,,,0.00,Wunderground v.1.15,2013-03-18 08:04:00,
2013-03-18 03:10:00,29.8,28.8,29.72,SSE,148,6.0,6.0,96,0.00,,,0.00,Wunderground v.1.15,2013-03-18 08:10:00,
2013-03-18 03:12:00,29.8,28.8,29.72,South,172,6.0,7.0,96,0.00,,,0.00,Wunderground v.1.15,2013-03-18 08:12:00,
2013-03-18 03:18:00,29.9,28.9,29.72,SSE,163,6.0,16.0,96,0.00,,,0.00,Wunderground v.1.15,2013-03-18 08:18:00,
2013-03-18 03:22:00,29.9,28.9,29.72,SSE,148,6.0,9.0,96,0.00,,,0.00,Wunderground v.1.15,2013-03-18 08:22:00,
2013-03-18 03:24:00,29.9,28.9,29.72,SSE,165,6.0,16.0,96,0.00,,,0.00,Wunderground v.1.15,2013-03-18 08:24:00,
2013-03-18 03:26:00,30.0,29.0,29.71,SE,145,6.0,16.0,96,0.00,,,0.00,Wunderground v.1.15,2013-03-18 08:26:00,
2013-03-18 03:32:00,29.9,28.9,29.70,SSE,167,6.0,16.0,96,0.00,,,0.00,Wunderground v.1.15,2013-03-18 08:32:00,
2013-03-18 03:36:00,29.9,28.9,29.70,SSE,153,7.0,16.0,96,0.00,,,0.00,Wunderground v.1.15,2013-03-18 08:36:00,
2013-03-18 03:38:00,29.9,28.9,29.70,South,183,7.0,16.0,96,0.00,,,0.00,Wunderground v.1.15,2013-03-18 08:38:00,
2013-03-18 03:44:00,29.9,28.9,29.70,South,174,6.0,16.0,96,0.00,,,0.00,Wunderground v.1.15,2013-03-18 08:44:00,
2013-03-18 03:46:00,29.9,28.9,29.70,SSE,167,6.0,16.0,96,0.00,,,0.00,Wunderground v.1.15,2013-03-18 08:46:00,
2013-03-18 03:52:00,29.8,29.1,29.69,SSE,162,6.0,16.0,97,0.00,,,0.00,Wunderground v.1.15,2013-03-18 08:52:00,
2013-03-18 03:54:00,29.8,29.1,29.69,South,169,6.0,16.0,97,0.00,,,0.00,Wunderground v.1.15,2013-03-18 08:54:00,
2013-03-18 03:58:00,29.8,29.1,29.69,SSE,158,6.0,16.0,97,0.00,,,0.00,Wunderground v.1.15,2013-03-18 08:58:00,
2013-03-18 04:00:00,29.9,29.2,29.69,South,174,6.0,16.0,97,0.00,,,0.00,Wunderground v.1.15,2013-03-18 09:00:00,
2013-03-18 04:04:00,29.9,29.2,29.69,South,172,6.0,16.0,97,0.00,,,0.00,Wunderground v.1.15,2013-03-18 09:04:00,
2013-03-18 04:08:00,29.9,29.2,29.69,South,187,6.0,16.0,97,0.00,,,0.00,Wunderground v.1.15,2013-03-18 09:08:00,
2013-03-18 04:10:00,29.9,29.2,29.69,SSE,160,6.0,16.0,97,0.00,,,0.00,Wunderground v.1.15,2013-03-18 09:10:00,
2013-03-18 04:12:00,29.9,29.2,29.69,SSE,157,6.0,16.0,97,0.00,,,0.00,Wunderground v.1.15,2013-03-18 09:12:00,
2013-03-18 04:18:00,30.0,29.3,29.69,SSE,160,6.0,16.0,97,0.00,,,0.00,Wunderground v.1.15,2013-03-18 09:18:00,
2013-03-18 04:24:00,30.0,29.3,29.68,South,176,6.0,16.0,97,0.00,,,0.00,Wunderground v.1.15,2013-03-18 09:24:00,
2013-03-18 04:26:00,30.0,29.3,29.68,South,191,5.0,16.0,97,0.00,,,0.00,Wunderground v.1.15,2013-03-18 09:26:00,
2013-03-18 04:30:00,30.0,29.3,29.68,SSW,193,5.0,5.0,97,0.00,,,0.00,Wunderground v.1.15,2013-03-18 09:30:00,
2013-03-18 04:32:00,30.1,29.4,29.68,SSE,163,5.0,16.0,97,0.00,,,0.00,Wunderground v.1.15,2013-03-18 09:32:00,
2013-03-18 04:36:00,30.1,29.4,29.67,SSW,208,5.0,16.0,97,0.00,,,0.00,Wunderground v.1.15,2013-03-18 09:36:00,
2013-03-18 04:40:00,30.2,29.5,29.67,South,186,5.0,16.0,97,0.00,,,0.00,Wunderground v.1.15,2013-03-18 09:40:00,
2013-03-18 04:46:00,30.3,29.6,29.67,South,181,5.0,16.0,97,0.00,,,0.00,Wunderground v.1.15,2013-03-18 09:46:00,
2013-03-18 04:48:00,30.3,29.6,29.67,SW,235,5.0,16.0,97,0.00,,,0.00,Wunderground v.1.15,2013-03-18 09:48:00,
2013-03-18 04:50:00,30.4,29.7,29.67,SSE,165,6.0,6.0,97,0.00,,,0.00,Wunderground v.1.15,2013-03-18 09:50:00,
2013-03-18 04:54:00,30.4,29.7,29.66,SSE,162,6.0,16.0,97,0.00,,,0.00,Wunderground v.1.15,2013-03-18 09:54:00,
2013-03-18 04:58:00,30.4,29.7,29.66,South,170,6.0,16.0,97,0.00,,,0.00,Wunderground v.1.15,2013-03-18 09:58:00,
2013-03-18 05:02:00,30.5,29.8,29.66,SSE,153,5.0,16.0,97,0.00,,,0.00,Wunderground v.1.15,2013-03-18 10:02:00,
2013-03-18 05:04:00,30.5,29.8,29.66,SSE,167,6.0,16.0,97,0.00,,,0.00,Wunderground v.1.15,2013-03-18 10:04:00,
2013-03-18 05:06:00,30.5,29.8,29.66,South,186,5.0,16.0,97,0.00,,,0.00,Wunderground v.1.15,2013-03-18 10:06:00,
2013-03-18 05:12:00,30.6,29.9,29.65,SSE,159,5.0,16.0,97,0.00,,,0.00,Wunderground v.1.15,2013-03-18 10:12:00,
2013-03-18 05:14:00,30.6,29.9,29.66,South,179,5.0,16.0,97,0.00,,,0.00,Wunderground v.1.15,2013-03-18 10:14:00,
2013-03-18 05:16:00,30.7,30.0,29.65,SSE,150,6.0,16.0,97,0.00,,,0.00,Wunderground v.1.15,2013-03-18 10:16:00,
2013-03-18 05:18:00,30.7,30.0,29.66,South,180,6.0,16.0,97,0.00,,,0.00,Wunderground v.1.15,2013-03-18 10:18:00,
2013-03-18 05:22:00,30.8,30.3,29.66,SSW,194,6.0,16.0,98,0.00,,,0.00,Wunderground v.1.15,2013-03-18 10:22:00,
2013-03-18 05:28:00,30.9,30.4,29.65,SSW,203,6.0,16.0,98,0.00,,,0.00,Wunderground v.1.15,2013-03-18 10:28:00,
2013-03-18 05:30:00,31.0,30.5,29.65,SSE,162,6.0,6.0,98,0.00,,,0.00,Wunderground v.1.15,2013-03-18 10:30:00,
2013-03-18 05:32:00,31.0,30.5,29.65,SSW,204,6.0,16.0,98,0.00,,,0.00,Wunderground v.1.15,2013-03-18 10:32:00,
2013-03-18 05:34:00,31.0,30.5,29.65,SSE,156,6.0,16.0,98,0.00,,,0.00,Wunderground v.1.15,2013-03-18 10:34:00,
2013-03-18 05:38:00,31.1,30.6,29.65,SW,215,6.0,16.0,98,0.00,,,0.00,Wunderground v.1.15,2013-03-18 10:38:00,
2013-03-18 05:44:00,31.3,30.8,29.65,South,188,6.0,16.0,98,0.00,,,0.00,Wunderground v.1.15,2013-03-18 10:44:00,
2013-03-18 05:48:00,31.3,30.8,29.65,SSW,207,7.0,16.0,98,0.00,,,0.00,Wunderground v.1.15,2013-03-18 10:48:00,
2013-03-18 05:50:00,31.4,30.9,29.65,SW,231,8.0,16.0,98,0.00,,,0.00,Wunderground v.1.15,2013-03-18 10:50:00,
2013-03-18 05:54:00,31.4,30.9,29.64,SW,222,8.0,16.0,98,0.00,,,0.00,Wunderground v.1.15,2013-03-18 10:54:00,
2013-03-18 05:56:00,31.5,31.0,29.64,SSW,195,8.0,16.0,98,0.00,,,0.00,Wunderground v.1.15,2013-03-18 10:56:00,
2013-03-18 06:00:00,31.6,31.1,29.64,SW,229,7.0,16.0,98,0.00,,,0.00,Wunderground v.1.15,2013-03-18 11:00:00,
2013-03-18 06:02:00,31.6,31.1,29.64,SW,215,7.0,16.0,98,0.00,,,0.00,Wunderground v.1.15,2013-03-18 11:02:00,
2013-03-18 06:08:00,31.7,31.2,29.64,West,264,8.0,16.0,98,0.00,,,0.00,Wunderground v.1.15,2013-03-18 11:08:00,
2013-03-18 06:10:00,31.8,31.3,29.64,SSW,207,8.0,16.0,98,0.00,,,0.00,Wunderground v.1.15,2013-03-18 11:10:00,
2013-03-18 06:14:00,32.0,31.5,29.64,WSW,239,9.0,16.0,98,0.00,,,0.00,Wunderground v.1.15,2013-03-18 11:14:00,
2013-03-18 06:16:00,32.0,31.5,29.64,SW,221,9.0,16.0,98,0.00,,,0.00,Wunderground v.1.15,2013-03-18 11:16:00,
2013-03-18 06:18:00,32.1,31.6,29.64,WSW,245,10.0,16.0,98,0.00,,,0.00,Wunderground v.1.15,2013-03-18 11:18:00,
2013-03-18 06:20:00,32.1,31.6,29.65,West,264,10.0,10.0,98,0.00,,,0.00,Wunderground v.1.15,2013-03-18 11:20:00,
2013-03-18 06:24:00,32.2,31.7,29.64,NW,309,10.0,16.0,98,0.00,,,0.00,Wunderground v.1.15,2013-03-18 11:24:00,
2013-03-18 06:30:00,31.8,30.5,29.65,WNW,288,11.0,11.0,95,0.00,,,0.00,Wunderground v.1.15,2013-03-18 11:30:00,
2013-03-18 06:32:00,31.8,30.3,29.65,West,281,11.0,16.0,94,0.00,,,0.00,Wunderground v.1.15,2013-03-18 11:32:00,
2013-03-18 06:36:00,31.6,30.3,29.65,West,281,10.0,16.0,95,0.00,,,0.00,Wunderground v.1.15,2013-03-18 11:36:00,
2013-03-18 06:42:00,31.5,30.2,29.65,West,264,11.0,16.0,95,0.00,,,0.00,Wunderground v.1.15,2013-03-18 11:42:00,
2013-03-18 06:44:00,31.3,30.0,29.65,West,263,11.0,16.0,95,0.00,,,0.00,Wunderground v.1.15,2013-03-18 11:44:00,
2013-03-18 06:48:00,31.2,29.9,29.66,West,280,12.0,16.0,95,0.00,,,0.00,Wunderground v.1.15,2013-03-18 11:48:00,
2013-03-18 06:50:00,31.0,29.7,29.65,West,269,12.0,16.0,95,0.00,,,0.00,Wunderground v.1.15,2013-03-18 11:50:00,
2013-03-18 06:54:00,30.9,29.4,29.66,WNW,302,13.0,16.0,94,0.00,,,0.00,Wunderground v.1.15,2013-03-18 11:54:00,
2013-03-18 06:56:00,30.9,29.4,29.66,WNW,302,13.0,17.0,94,0.00,,,0.00,Wunderground v.1.15,2013-03-18 11:56:00,
2013-03-18 07:02:00,30.6,28.6,29.66,WNW,301,14.0,16.0,92,0.00,,,0.00,Wunderground v.1.15,2013-03-18 12:02:00,
2013-03-18 07:06:00,30.4,28.4,29.66,WNW,298,14.0,17.0,92,0.00,,,0.00,Wunderground v.1.15,2013-03-18 12:06:00,
2013-03-18 07:08:00,30.3,28.3,29.66,WNW,289,13.0,17.0,92,0.00,,,0.00,Wunderground v.1.15,2013-03-18 12:08:00,
2013-03-18 07:12:00,30.1,27.8,29.66,WNW,293,13.0,17.0,91,0.00,,,0.00,Wunderground v.1.15,2013-03-18 12:12:00,
2013-03-18 07:14:00,30.0,27.7,29.66,NW,307,14.0,17.0,91,0.00,,,0.00,Wunderground v.1.15,2013-03-18 12:14:00,
2013-03-18 07:20:00,29.7,27.1,29.66,WNW,302,14.0,20.0,90,0.00,,,0.00,Wunderground v.1.15,2013-03-18 12:20:00,
2013-03-18 07:22:00,29.4,26.6,29.66,WNW,288,15.0,20.0,89,0.00,,,0.00,Wunderground v.1.15,2013-03-18 12:22:00,
2013-03-18 07:24:00,29.2,26.1,29.67,WNW,282,16.0,20.0,88,0.00,,,0.00,Wunderground v.1.15,2013-03-18 12:24:00,
2013-03-18 07:28:00,28.5,25.7,29.67,WNW,295,17.0,20.0,89,0.00,,,0.00,Wunderground v.1.15,2013-03-18 12:28:00,
2013-03-18 07:30:00,28.3,25.5,29.67,WNW,300,16.0,16.0,89,0.00,,,0.00,Wunderground v.1.15,2013-03-18 12:30:00,
2013-03-18 07:36:00,27.1,23.2,29.68,WNW,290,16.0,25.0,85,0.00,,,0.00,Wunderground v.1.15,2013-03-18 12:36:00,
2013-03-18 07:38:00,26.7,22.8,29.68,WNW,293,17.0,25.0,85,0.00,,,0.00,Wunderground v.1.15,2013-03-18 12:38:00,
2013-03-18 07:42:00,26.3,22.4,29.68,WNW,293,17.0,17.0,85,0.00,,,0.00,Wunderground v.1.15,2013-03-18 12:42:00,
2013-03-18 07:44:00,26.1,22.2,29.68,WNW,300,16.0,17.0,85,0.00,,,0.00,Wunderground v.1.15,2013-03-18 12:44:00,
2013-03-18 07:50:00,25.5,21.9,29.68,WNW,293,16.0,16.0,86,0.00,,,0.00,Wunderground v.1.15,2013-03-18 12:50:00,
2013-03-18 07:52:00,25.5,21.9,29.68,WNW,297,16.0,18.0,86,0.00,,,0.00,Wunderground v.1.15,2013-03-18 12:52:00,
2013-03-18 07:56:00,25.3,21.4,29.68,WNW,289,16.0,18.0,85,0.00,,,0.00,Wunderground v.1.15,2013-03-18 12:56:00,
2013-03-18 07:58:00,25.2,21.0,29.68,WNW,291,16.0,18.0,84,0.00,,,0.00,Wunderground v.1.15,2013-03-18 12:58:00,
2013-03-18 08:04:00,24.9,21.0,29.69,NW,312,16.0,20.0,85,0.00,,,0.00,Wunderground v.1.15,2013-03-18 13:04:00,
2013-03-18 08:10:00,24.4,20.8,29.69,WNW,301,16.0,18.0,86,0.00,,,0.00,Wunderground v.1.15,2013-03-18 13:10:00,
2013-03-18 08:12:00,24.1,20.0,29.69,WNW,288,17.0,19.0,84,0.00,,,0.00,Wunderground v.1.15,2013-03-18 13:12:00,
2013-03-18 08:14:00,23.9,19.8,29.69,West,277,17.0,19.0,84,0.00,,,0.00,Wunderground v.1.15,2013-03-18 13:14:00,
2013-03-18 08:16:00,23.6,19.8,29.70,WNW,295,17.0,19.0,85,0.00,,,0.00,Wunderground v.1.15,2013-03-18 13:16:00,
2013-03-18 08:20:00,23.2,19.1,29.69,WNW,286,16.0,16.0,84,0.00,,,0.00,Wunderground v.1.15,2013-03-18 13:20:00,
2013-03-18 08:22:00,22.9,18.8,29.69,WNW,289,16.0,16.0,84,0.00,,,0.00,Wunderground v.1.15,2013-03-18 13:22:00,
2013-03-18 08:28:00,22.2,18.1,29.69,WNW,290,16.0,19.0,84,0.00,,,0.00,Wunderground v.1.15,2013-03-18 13:28:00,
2013-03-18 08:30:00,22.1,18.0,29.69,WNW,285,15.0,16.0,84,0.00,,,0.00,Wunderground v.1.15,2013-03-18 13:30:00,
2013-03-18 08:38:00,22.1,18.3,29.69,WNW,301,17.0,21.0,85,0.00,,,0.00,Wunderground v.1.15,2013-03-18 13:38:00,
2013-03-18 08:40:00,22.1,18.6,29.69,WNW,302,17.0,19.0,86,0.00,,,0.00,Wunderground v.1.15,2013-03-18 13:40:00,
2013-03-18 08:44:00,22.0,18.5,29.70,WNW,285,18.0,23.0,86,0.00,,,0.00,Wunderground v.1.15,2013-03-18 13:44:00,
2013-03-18 08:46:00,22.0,18.5,29.70,WNW,290,18.0,23.0,86,0.00,,,0.00,Wunderground v.1.15,2013-03-18 13:46:00,
2013-03-18 08:48:00,21.9,18.1,29.70,WNW,299,18.0,23.0,85,0.00,,,0.00,Wunderground v.1.15,2013-03-18 13:48:00,
2013-03-18 08:52:00,21.5,16.9,29.70,WNW,291,18.0,18.0,82,0.00,,,0.00,Wunderground v.1.15,2013-03-18 13:52:00,
2013-03-18 08:54:00,21.1,16.2,29.71,West,281,18.0,21.0,81,0.00,,,0.00,Wunderground v.1.15,2013-03-18 13:54:00,
2013-03-18 09:00:00,20.5,15.9,29.71,WNW,297,17.0,21.0,82,0.00,,,0.00,Wunderground v.1.15,2013-03-18 14:00:00,
2013-03-18 09:02:00,20.4,15.8,29.71,NW,308,18.0,21.0,82,0.00,,,0.00,Wunderground v.1.15,2013-03-18 14:02:00,
2013-03-18 09:08:00,20.4,16.6,29.71,NW,314,18.0,26.0,85,0.00,,,0.00,Wunderground v.1.15,2013-03-18 14:08:00,
2013-03-18 09:12:00,20.3,15.7,29.71,NW,306,18.0,22.0,82,0.00,,,0.00,Wunderground v.1.15,2013-03-18 14:12:00,
2013-03-18 09:14:00,20.3,16.0,29.71,WNW,300,18.0,24.0,83,0.00,,,0.00,Wunderground v.1.15,2013-03-18 14:14:00,
2013-03-18 09:18:00,20.2,15.9,29.71,WNW,298,18.0,24.0,83,0.00,,,0.00,Wunderground v.1.15,2013-03-18 14:18:00,
2013-03-18 09:20:00,20.2,15.9,29.71,WNW,301,18.0,18.0,83,0.00,,,0.00,Wunderground v.1.15,2013-03-18 14:20:00,
2013-03-18 09:26:00,20.2,15.9,29.71,WNW,301,17.0,18.0,83,0.00,,,0.00,Wunderground v.1.15,2013-03-18 14:26:00,
2013-03-18 09:28:00,20.4,16.3,29.71,NW,311,16.0,18.0,84,0.00,,,0.00,Wunderground v.1.15,2013-03-18 14:28:00,
2013-03-18 09:32:00,20.4,16.1,29.71,West,266,16.0,18.0,83,0.00,,,0.00,Wunderground v.1.15,2013-03-18 14:32:00,
2013-03-18 09:34:00,20.4,15.8,29.71,WNW,297,16.0,18.0,82,0.00,,,0.00,Wunderground v.1.15,2013-03-18 14:34:00,
2013-03-18 09:40:00,20.4,16.9,29.72,NW,304,17.0,21.0,86,0.00,,,0.00,Wunderground v.1.15,2013-03-18 14:40:00,
2013-03-18 09:42:00,20.4,16.9,29.72,WNW,296,18.0,21.0,86,0.00,,,0.00,Wunderground v.1.15,2013-03-18 14:42:00,
2013-03-18 09:44:00,20.2,15.9,29.72,NW,314,18.0,23.0,83,0.00,,,0.00,Wunderground v.1.15,2013-03-18 14:44:00,
2013-03-18 09:50:00,19.9,15.0,29.72,NW,318,18.0,18.0,81,0.00,,,0.00,Wunderground v.1.15,2013-03-18 14:50:00,
2013-03-18 09:52:00,19.9,15.3,29.73,WNW,284,18.0,18.0,82,0.00,,,0.00,Wunderground v.1.15,2013-03-18 14:52:00,
2013-03-18 09:54:00,19.9,15.3,29.73,NW,306,18.0,18.0,82,0.00,,,0.00,Wunderground v.1.15,2013-03-18 14:54:00,
2013-03-18 09:58:00,19.9,15.0,29.73,WNW,301,17.0,20.0,81,0.00,,,0.00,Wunderground v.1.15,2013-03-18 14:58:00,
2013-03-18 10:00:00,19.7,14.2,29.73,WNW,300,18.0,23.0,79,0.00,,,0.00,Wunderground v.1.15,2013-03-18 15:00:00,
2013-03-18 10:02:00,19.6,14.1,29.73,WNW,297,18.0,23.0,79,0.00,,,0.00,Wunderground v.1.15,2013-03-18 15:02:00,
2013-03-18 10:08:00,19.7,15.1,29.73,WNW,294,18.0,23.0,82,0.00,,,0.00,Wunderground v.1.15,2013-03-18 15:08:00,
2013-03-18 10:10:00,19.8,15.7,29.73,NW,304,18.0,18.0,84,0.00,,,0.00,Wunderground v.1.15,2013-03-18 15:10:00,
2013-03-18 10:14:00,19.4,15.4,29.74,WNW,296,17.0,18.0,84,0.00,,,0.00,Wunderground v.1.15,2013-03-18 15:14:00,
2013-03-18 10:16:00,19.1,14.5,29.74,WNW,285,17.0,20.0,82,0.00,,,0.00,Wunderground v.1.15,2013-03-18 15:16:00,
2013-03-18 10:18:00,18.9,14.0,29.74,WNW,297,17.0,20.0,81,0.00,,,0.00,Wunderground v.1.15,2013-03-18 15:18:00,
2013-03-18 10:20:00,18.9,14.3,29.74,West,281,18.0,18.0,82,0.00,,,0.00,Wunderground v.1.15,2013-03-18 15:20:00,
2013-03-18 10:22:00,19.0,14.7,29.74,WNW,296,18.0,22.0,83,0.00,,,0.00,Wunderground v.1.15,2013-03-18 15:22:00,
2013-03-18 10:28:00,18.8,14.2,29.74,WNW,284,19.0,24.0,82,0.00,,,0.00,Wunderground v.1.15,2013-03-18 15:28:00,
2013-03-18 10:34:00,18.7,14.4,29.74,WNW,288,19.0,23.0,83,0.00,,,0.00,Wunderground v.1.15,2013-03-18 15:34:00,
2013-03-18 10:38:00,18.9,13.7,29.74,NW,304,20.0,23.0,80,0.00,,,0.00,Wunderground v.1.15,2013-03-18 15:38:00,
2013-03-18 10:44:00,19.1,13.4,29.74,WNW,287,21.0,26.0,78,0.00,,,0.00,Wunderground v.1.15,2013-03-18 15:44:00,
2013-03-18 10:50:00,19.0,13.6,29.75,NW,304,21.0,21.0,79,0.00,,,0.00,Wunderground v.1.15,2013-03-18 15:50:00,
2013-03-18 10:54:00,19.0,13.8,29.74,WNW,298,20.0,21.0,80,0.00,,,0.00,Wunderground v.1.15,2013-03-18 15:54:00,
2013-03-18 10:58:00,19.3,13.9,29.75,WNW,297,19.0,21.0,79,0.00,,,0.00,Wunderground v.1.15,2013-03-18 15:58:00,
2013-03-18 11:02:00,19.5,14.6,29.75,WNW,300,18.0,19.0,81,0.00,,,0.00,Wunderground v.1.15,2013-03-18 16:02:00,
2013-03-18 11:04:00,19.6,15.0,29.75,NW,307,17.0,19.0,82,0.00,,,0.00,Wunderground v.1.15,2013-03-18 16:04:00,
2013-03-18 11:08:00,19.7,15.4,29.74,WNW,293,17.0,19.0,83,0.00,,,0.00,Wunderground v.1.15,2013-03-18 16:08:00,
2013-03-18 11:10:00,19.2,14.0,29.75,WNW,285,18.0,18.0,80,0.00,,,0.00,Wunderground v.1.15,2013-03-18 16:10:00,
2013-03-18 11:18:00,19.1,12.8,29.75,NW,307,19.0,23.0,76,0.00,,,0.00,Wunderground v.1.15,2013-03-18 16:18:00,
2013-03-18 11:20:00,19.0,12.7,29.75,NW,323,20.0,20.0,76,0.00,,,0.00,Wunderground v.1.15,2013-03-18 16:20:00,
2013-03-18 11:24:00,19.0,12.7,29.75,NW,304,20.0,21.0,76,0.00,,,0.00,Wunderground v.1.15,2013-03-18 16:24:00,
2013-03-18 11:26:00,19.2,13.8,29.75,WNW,293,20.0,21.0,79,0.00,,,0.00,Wunderground v.1.15,2013-03-18 16:26:00,
2013-03-18 11:30:00,19.4,13.9,29.75,NW,312,19.0,19.0,79,0.00,,,0.00,Wunderground v.1.15,2013-03-18 16:30:00,
2013-03-18 11:32:00,19.5,14.0,29.75,WNW,285,19.0,20.0,79,0.00,,,0.00,Wunderground v.1.15,2013-03-18 16:32:00,
2013-03-18 11:34:00,19.4,13.7,29.75,NW,308,19.0,20.0,78,0.00,,,0.00,Wunderground v.1.15,2013-03-18 16:34:00,
2013-03-18 11:38:00,19.4,14.2,29.75,NW,304,19.0,23.0,80,0.00,,,0.00,Wunderground v.1.15,2013-03-18 16:38:00,
2013-03-18 11:40:00,19.4,13.7,29.75,WNW,297,19.0,19.0,78,0.00,,,0.00,Wunderground v.1.15,2013-03-18 16:40:00,
2013-03-18 11:46:00,19.2,13.2,29.75,NW,309,19.0,23.0,77,0.00,,,0.00,Wunderground v.1.15,2013-03-18 16:46:00,
2013-03-18 11:48:00,19.3,13.3,29.75,NW,318,19.0,23.0,77,0.00,,,0.00,Wunderground v.1.15,2013-03-18 16:48:00,
2013-03-18 11:52:00,19.6,13.6,29.76,WNW,288,20.0,20.0,77,0.00,,,0.00,Wunderground v.1.15,2013-03-18 16:52:00,
2013-03-18 11:58:00,19.8,14.3,29.75,WNW,293,19.0,20.0,79,0.00,,,0.00,Wunderground v.1.15,2013-03-18 16:58:00,
2013-03-18 12:00:00,19.6,14.7,29.75,NW,304,19.0,19.0,81,0.00,,,0.00,Wunderground v.1.15,2013-03-18 17:00:00,
2013-03-18 12:02:00,19.5,14.9,29.75,West,281,18.0,19.0,82,0.00,,,0.00,Wunderground v.1.15,2013-03-18 17:02:00,
2013-03-18 12:06:00,18.7,14.1,29.76,WNW,290,19.0,24.0,82,0.00,,,0.00,Wunderground v.1.15,2013-03-18 17:06:00,
2013-03-18 12:08:00,18.7,14.1,29.76,NW,307,19.0,30.0,82,0.00,,,0.00,Wunderground v.1.15,2013-03-18 17:08:00,
2013-03-18 12:10:00,18.9,14.0,29.76,NW,306,19.0,20.0,81,0.00,,,0.00,Wunderground v.1.15,2013-03-18 17:10:00,
2013-03-18 12:12:00,18.9,13.2,29.76,WNW,300,19.0,20.0,78,0.00,,,0.00,Wunderground v.1.15,2013-03-18 17:12:00,
2013-03-18 12:18:00,18.3,14.0,29.76,WNW,294,19.0,20.0,83,0.00,,,0.00,Wunderground v.1.15,2013-03-18 17:18:00,
2013-03-18 12:20:00,18.2,13.6,29.77,NW,316,20.0,20.0,82,0.00,,,0.00,Wunderground v.1.15,2013-03-18 17:20:00,
2013-03-18 12:22:00,18.1,12.7,29.77,West,279,20.0,20.0,79,0.00,,,0.00,Wunderground v.1.15,2013-03-18 17:22:00,
2013-03-18 12:26:00,18.2,12.8,29.77,WNW,295,20.0,21.0,79,0.00,,,0.00,Wunderground v.1.15,2013-03-18 17:26:00,
2013-03-18 12:28:00,18.1,12.4,29.77,WNW,288,20.0,21.0,78,0.00,,,0.00,Wunderground v.1.15,2013-03-18 17:28:00,
2013-03-18 12:30:00,18.2,13.1,29.77,WNW,297,19.0,20.0,80,0.00,,,0.00,Wunderground v.1.15,2013-03-18 17:30:00,
2013-03-18 12:34:00,18.1,12.4,29.77,WNW,298,20.0,22.0,78,0.00,,,0.00,Wunderground v.1.15,2013-03-18 17:34:00,
2013-03-18 12:38:00,17.7,11.4,29.78,WNW,295,21.0,25.0,76,0.00,,,0.00,Wunderground v.1.15,2013-03-18 17:38:00,
2013-03-18 12:40:00,17.6,11.6,29.78,NW,304,21.0,21.0,77,0.00,,,0.00,Wunderground v.1.15,2013-03-18 17:40:00,
2013-03-18 12:42:00,17.6,12.2,29.78,WNW,302,21.0,22.0,79,0.00,,,0.00,Wunderground v.1.15,2013-03-18 17:42:00,
2013-03-18 12:46:00,17.5,12.4,29.78,WNW,294,20.0,22.0,80,0.00,,,0.00,Wunderground v.1.15,2013-03-18 17:46:00,
2013-03-18 12:48:00,17.5,12.7,29.78,NW,315,18.0,22.0,81,0.00,,,0.00,Wunderground v.1.15,2013-03-18 17:48:00,
2013-03-18 12:50:00,17.3,12.2,29.78,WNW,295,19.0,19.0,80,0.00,,,0.00,Wunderground v.1.15,2013-03-18 17:50:00,
2013-03-18 12:54:00,17.5,12.4,29.78,West,280,18.0,19.0,80,0.00,,,0.00,Wunderground v.1.15,2013-03-18 17:54:00,
2013-03-18 12:58:00,17.6,12.2,29.78,West,279,18.0,19.0,79,0.00,,,0.00,Wunderground v.1.15,2013-03-18 17:58:00,
2013-03-18 13:00:00,17.7,12.3,29.78,NW,311,19.0,19.0,79,0.00,,,0.00,Wunderground v.1.15,2013-03-18 18:00:00,
2013-03-18 13:04:00,17.5,12.1,29.78,WNW,295,20.0,27.0,79,0.00,,,0.00,Wunderground v.1.15,2013-03-18 18:04:00,
2013-03-18 13:06:00,17.6,12.2,29.78,NW,304,20.0,27.0,79,0.00,,,0.00,Wunderground v.1.15,2013-03-18 18:06:00,
2013-03-18 13:10:00,17.6,11.9,29.79,WNW,298,20.0,27.0,78,0.00,,,0.00,Wunderground v.1.15,2013-03-18 18:10:00,
2013-03-18 13:14:00,17.7,12.0,29.79,WNW,295,20.0,27.0,78,0.00,,,0.00,Wunderground v.1.15,2013-03-18 18:14:00,
2013-03-18 13:18:00,17.9,12.2,29.79,NW,307,20.0,27.0,78,0.00,,,0.00,Wunderground v.1.15,2013-03-18 18:18:00,
2013-03-18 13:20:00,18.1,12.4,29.79,WNW,288,20.0,29.0,78,0.00,,,0.00,Wunderground v.1.15,2013-03-18 18:20:00,
2013-03-18 13:26:00,18.0,12.6,29.79,West,262,19.0,29.0,79,0.00,,,0.00,Wunderground v.1.15,2013-03-18 18:26:00,
2013-03-18 13:30:00,18.2,13.1,29.79,WNW,294,18.0,27.0,80,0.00,,,0.00,Wunderground v.1.15,2013-03-18 18:30:00,
2013-03-18 13:32:00,18.1,12.7,29.79,WNW,297,18.0,27.0,79,0.00,,,0.00,Wunderground v.1.15,2013-03-18 18:32:00,
2013-03-18 13:38:00,18.1,13.0,29.79,West,271,19.0,27.0,80,0.00,,,0.00,Wunderground v.1.15,2013-03-18 18:38:00,
2013-03-18 13:40:00,18.2,12.8,29.79,WNW,297,19.0,19.0,79,0.00,,,0.00,Wunderground v.1.15,2013-03-18 18:40:00,
2013-03-18 13:42:00,18.1,12.7,29.79,WNW,300,19.0,27.0,79,0.00,,,0.00,Wunderground v.1.15,2013-03-18 18:42:00,
2013-03-18 13:44:00,18.0,12.6,29.79,WNW,291,19.0,27.0,79,0.00,,,0.00,Wunderground v.1.15,2013-03-18 18:44:00,
2013-03-18 13:46:00,18.1,13.0,29.79,West,281,19.0,27.0,80,0.00,,,0.00,Wunderground v.1.15,2013-03-18 18:46:00,
2013-03-18 13:50:00,18.2,13.1,29.79,WNW,288,19.0,27.0,80,0.00,,,0.00,Wunderground v.1.15,2013-03-18 18:50:00,
2013-03-18 13:52:00,18.4,13.3,29.79,WNW,285,18.0,27.0,80,0.00,,,0.00,Wunderground v.1.15,2013-03-18 18:52:00,
2013-03-18 13:58:00,18.5,11.9,29.79,WNW,290,19.0,27.0,75,0.00,,,0.00,Wunderground v.1.15,2013-03-18 18:58:00,
2013-03-18 14:02:00,18.4,13.0,29.79,WNW,283,19.0,22.0,79,0.00,,,0.00,Wunderground v.1.15,2013-03-18 19:02:00,
2013-03-18 14:04:00,18.2,12.8,29.79,WNW,291,20.0,27.0,79,0.00,,,0.00,Wunderground v.1.15,2013-03-18 19:04:00,
2013-03-18 14:10:00,18.1,13.3,29.80,WNW,294,18.0,27.0,81,0.00,,,0.00,Wunderground v.1.15,2013-03-18 19:10:00,
2013-03-18 14:12:00,18.1,12.4,29.80,WNW,288,18.0,27.0,78,0.00,,,0.00,Wunderground v.1.15,2013-03-18 19:12:00,
2013-03-18 14:14:00,18.1,12.4,29.79,WNW,290,19.0,27.0,78,0.00,,,0.00,Wunderground v.1.15,2013-03-18 19:14:00,
2013-03-18 14:18:00,18.2,12.8,29.79,WNW,293,20.0,27.0,79,0.00,,,0.00,Wunderground v.1.15,2013-03-18 19:18:00,
2013-03-18 14:22:00,18.2,13.3,29.80,WNW,299,20.0,21.0,81,0.00,,,0.00,Wunderground v.1.15,2013-03-18 19:22:00,
2013-03-18 14:24:00,17.8,12.4,29.80,WNW,300,20.0,27.0,79,0.00,,,0.00,Wunderground v.1.15,2013-03-18 19:24:00,
2013-03-18 14:26:00,17.7,12.6,29.79,WNW,297,19.0,27.0,80,0.00,,,0.00,Wunderground v.1.15,2013-03-18 19:26:00,
2013-03-18 14:28:00,17.8,12.4,29.79,NW,306,19.0,27.0,79,0.00,,,0.00,Wunderground v.1.15,2013-03-18 19:28:00,
2013-03-18 14:30:00,17.9,11.9,29.79,West,280,19.0,27.0,77,0.00,,,0.00,Wunderground v.1.15,2013-03-18 19:30:00,
2013-03-18 14:32:00,18.1,12.7,29.79,WNW,283,20.0,27.0,79,0.00,,,0.00,Wunderground v.1.15,2013-03-18 19:32:00,
2013-03-18 14:34:00,18.2,12.8,29.79,WNW,290,20.0,27.0,79,0.00,,,0.00,Wunderground v.1.15,2013-03-18 19:34:00,
2013-03-18 14:38:00,18.4,14.4,29.79,WNW,302,19.0,27.0,84,0.00,,,0.00,Wunderground v.1.15,2013-03-18 19:38:00,
2013-03-18 14:42:00,18.6,13.2,29.79,WNW,300,19.0,27.0,79,0.00,,,0.00,Wunderground v.1.15,2013-03-18 19:42:00,
2013-03-18 14:46:00,18.5,12.2,29.79,NW,307,19.0,27.0,76,0.00,,,0.00,Wunderground v.1.15,2013-03-18 19:46:00,
2013-03-18 14:48:00,18.4,12.4,29.80,WNW,297,20.0,27.0,77,0.00,,,0.00,Wunderground v.1.15,2013-03-18 19:48:00,
2013-03-18 14:50:00,18.3,11.4,29.80,WNW,293,21.0,27.0,74,0.00,,,0.00,Wunderground v.1.15,2013-03-18 19:50:00,
2013-03-18 14:58:00,18.5,12.5,29.80,NW,317,19.0,27.0,77,0.00,,,0.00,Wunderground v.1.15,2013-03-18 19:58:00,
2013-03-18 15:02:00,18.2,12.2,29.80,WNW,298,18.0,27.0,77,0.00,,,0.00,Wunderground v.1.15,2013-03-18 20:02:00,
2013-03-18 15:04:00,18.1,12.1,29.80,WNW,288,18.0,27.0,77,0.00,,,0.00,Wunderground v.1.15,2013-03-18 20:04:00,
2013-03-18 15:08:00,18.1,12.1,29.80,WNW,300,20.0,27.0,77,0.00,,,0.00,Wunderground v.1.15,2013-03-18 20:08:00,
2013-03-18 15:10:00,18.2,12.5,29.80,WNW,290,20.0,27.0,78,0.00,,,0.00,Wunderground v.1.15,2013-03-18 20:10:00,
2013-03-18 15:12:00,18.2,12.5,29.80,WNW,295,20.0,27.0,78,0.00,,,0.00,Wunderground v.1.15,2013-03-18 20:12:00,
2013-03-18 15:14:00,18.2,11.9,29.80,WNW,300,20.0,27.0,76,0.00,,,0.00,Wunderground v.1.15,2013-03-18 20:14:00,
2013-03-18 15:20:00,17.9,12.2,29.80,WNW,301,19.0,27.0,78,0.00,,,0.00,Wunderground v.1.15,2013-03-18 20:20:00,
2013-03-18 15:22:00,17.9,12.5,29.80,WNW,301,19.0,27.0,79,0.00,,,0.00,Wunderground v.1.15,2013-03-18 20:22:00,
2013-03-18 15:26:00,17.9,13.1,29.80,WNW,283,19.0,27.0,81,0.00,,,0.00,Wunderground v.1.15,2013-03-18 20:26:00,
2013-03-18 15:28:00,18.1,12.4,29.80,WNW,285,19.0,27.0,78,0.00,,,0.00,Wunderground v.1.15,2013-03-18 20:28:00,
2013-03-18 15:32:00,18.0,11.1,29.80,NW,318,20.0,22.0,74,0.00,,,0.00,Wunderground v.1.15,2013-03-18 20:32:00,
2013-03-18 15:34:00,18.0,11.1,29.80,West,278,21.0,24.0,74,0.00,,,0.00,Wunderground v.1.15,2013-03-18 20:34:00,
2013-03-18 15:38:00,18.1,12.1,29.80,WNW,296,22.0,27.0,77,0.00,,,0.00,Wunderground v.1.15,2013-03-18 20:38:00,
2013-03-18 15:42:00,17.9,12.5,29.80,WNW,285,21.0,27.0,79,0.00,,,0.00,Wunderground v.1.15,2013-03-18 20:42:00,
2013-03-18 15:44:00,17.9,12.5,29.80,WNW,293,20.0,27.0,79,0.00,,,0.00,Wunderground v.1.15,2013-03-18 20:44:00,
2013-03-18 15:50:00,17.9,11.6,29.80,WNW,291,20.0,27.0,76,0.00,,,0.00,Wunderground v.1.15,2013-03-18 20:50:00,
2013-03-18 15:54:00,17.8,11.2,29.80,WNW,295,21.0,27.0,75,0.00,,,0.00,Wunderground v.1.15,2013-03-18 20:54:00,
2013-03-18 15:56:00,17.7,11.1,29.80,NW,304,21.0,27.0,75,0.00,,,0.00,Wunderground v.1.15,2013-03-18 20:56:00,
2013-03-18 15:58:00,17.8,11.8,29.81,WNW,291,21.0,27.0,77,0.00,,,0.00,Wunderground v.1.15,2013-03-18 20:58:00,
2013-03-18 16:00:00,17.8,12.4,29.81,West,276,21.0,27.0,79,0.00,,,0.00,Wunderground v.1.15,2013-03-18 21:00:00,
2013-03-18 16:02:00,17.8,12.4,29.81,WNW,293,21.0,27.0,79,0.00,,,0.00,Wunderground v.1.15,2013-03-18 21:02:00,
2013-03-18 16:04:00,17.9,12.2,29.81,WNW,301,21.0,27.0,78,0.00,,,0.00,Wunderground v.1.15,2013-03-18 21:04:00,
2013-03-18 16:08:00,18.1,12.4,29.81,WNW,300,20.0,27.0,78,0.00,,,0.00,Wunderground v.1.15,2013-03-18 21:08:00,
2013-03-18 16:10:00,18.3,12.9,29.81,WNW,300,21.0,27.0,79,0.00,,,0.00,Wunderground v.1.15,2013-03-18 21:10:00,
2013-03-18 16:14:00,18.3,12.0,29.81,NW,314,20.0,27.0,76,0.00,,,0.00,Wunderground v.1.15,2013-03-18 21:14:00,
2013-03-18 16:16:00,18.2,11.6,29.82,WNW,299,20.0,27.0,75,0.00,,,0.00,Wunderground v.1.15,2013-03-18 21:16:00,
2013-03-18 16:20:00,18.0,13.4,29.82,West,281,19.0,19.0,82,0.00,,,0.00,Wunderground v.1.15,2013-03-18 21:20:00,
2013-03-18 16:22:00,17.9,13.1,29.82,NW,314,18.0,27.0,81,0.00,,,0.00,Wunderground v.1.15,2013-03-18 21:22:00,
2013-03-18 16:28:00,18.4,12.1,29.82,NW,308,19.0,27.0,76,0.00,,,0.00,Wunderground v.1.15,2013-03-18 21:28:00,
2013-03-18 16:30:00,18.5,11.3,29.82,WNW,299,20.0,27.0,73,0.00,,,0.00,Wunderground v.1.15,2013-03-18 21:30:00,
2013-03-18 16:32:00,18.8,11.9,29.82,WNW,301,21.0,27.0,74,0.00,,,0.00,Wunderground v.1.15,2013-03-18 21:32:00,
2013-03-18 16:34:00,18.9,11.7,29.82,NW,305,21.0,27.0,73,0.00,,,0.00,Wunderground v.1.15,2013-03-18 21:34:00,
2013-03-18 16:38:00,19.2,12.3,29.83,WNW,288,21.0,27.0,74,0.00,,,0.00,Wunderground v.1.15,2013-03-18 21:38:00,
2013-03-18 16:42:00,18.9,11.4,29.83,NW,308,22.0,27.0,72,0.00,,,0.00,Wunderground v.1.15,2013-03-18 21:42:00,
2013-03-18 16:44:00,18.6,12.0,29.83,NW,312,21.0,27.0,75,0.00,,,0.00,Wunderground v.1.15,2013-03-18 21:44:00,
2013-03-18 16:48:00,17.8,13.2,29.83,WNW,302,21.0,27.0,82,0.00,,,0.00,Wunderground v.1.15,2013-03-18 21:48:00,
2013-03-18 16:50:00,17.5,12.7,29.83,NW,314,21.0,27.0,81,0.00,,,0.00,Wunderground v.1.15,2013-03-18 21:50:00,
2013-03-18 16:54:00,17.7,12.0,29.83,WNW,291,20.0,27.0,78,0.00,,,0.00,Wunderground v.1.15,2013-03-18 21:54:00,
2013-03-18 16:58:00,18.5,11.9,29.83,WNW,291,21.0,27.0,75,0.00,,,0.00,Wunderground v.1.15,2013-03-18 21:58:00,
2013-03-18 17:02:00,18.8,11.3,29.83,West,276,22.0,29.0,72,0.00,,,0.00,Wunderground v.1.15,2013-03-18 22:02:00,
2013-03-18 17:08:00,18.8,11.6,29.83,WNW,289,23.0,29.0,73,0.00,,,0.00,Wunderground v.1.15,2013-03-18 22:08:00,
2013-03-18 17:10:00,18.8,12.2,29.83,WNW,286,23.0,27.0,75,0.00,,,0.00,Wunderground v.1.15,2013-03-18 22:10:00,
2013-03-18 17:12:00,19.1,12.5,29.84,NNW,330,23.0,27.0,75,0.00,,,0.00,Wunderground v.1.15,2013-03-18 22:12:00,
2013-03-18 17:16:00,19.5,13.2,29.84,WNW,300,21.0,27.0,76,0.00,,,0.00,Wunderground v.1.15,2013-03-18 22:16:00,
2013-03-18 17:20:00,19.3,11.4,29.84,NW,319,20.0,20.0,71,0.00,,,0.00,Wunderground v.1.15,2013-03-18 22:20:00,
2013-03-18 17:22:00,19.1,11.6,29.84,NW,311,19.0,22.0,72,0.00,,,0.00,Wunderground v.1.15,2013-03-18 22:22:00,
2013-03-18 17:26:00,18.9,11.7,29.84,WNW,290,20.0,27.0,73,0.00,,,0.00,Wunderground v.1.15,2013-03-18 22:26:00,
2013-03-18 17:28:00,18.8,11.6,29.84,WNW,298,20.0,27.0,73,0.00,,,0.00,Wunderground v.1.15,2013-03-18 22:28:00,
2013-03-18 17:30:00,18.7,11.8,29.84,WNW,293,20.0,20.0,74,0.00,,,0.00,Wunderground v.1.15,2013-03-18 22:30:00,
2013-03-18 17:32:00,18.8,12.2,29.84,NW,308,19.0,27.0,75,0.00,,,0.00,Wunderground v.1.15,2013-03-18 22:32:00,
2013-03-18 17:38:00,18.5,12.5,29.85,WNW,302,18.0,27.0,77,0.00,,,0.00,Wunderground v.1.15,2013-03-18 22:38:00,
2013-03-18 17:44:00,18.5,13.4,29.85,WNW,297,17.0,27.0,80,0.00,,,0.00,Wunderground v.1.15,2013-03-18 22:44:00,
2013-03-18 17:50:00,18.2,13.3,29.85,WNW,298,17.0,27.0,81,0.00,,,0.00,Wunderground v.1.15,2013-03-18 22:50:00,
2013-03-18 17:54:00,17.9,13.1,29.85,WNW,291,17.0,27.0,81,0.00,,,0.00,Wunderground v.1.15,2013-03-18 22:54:00,
2013-03-18 17:58:00,18.1,12.4,29.85,WNW,295,18.0,27.0,78,0.00,,,0.00,Wunderground v.1.15,2013-03-18 22:58:00,
2013-03-18 18:00:00,18.1,12.1,29.85,NW,304,18.0,27.0,77,0.00,,,0.00,Wunderground v.1.15,2013-03-18 23:00:00,
2013-03-18 18:04:00,17.9,11.3,29.85,NNW,329,19.0,27.0,75,0.00,,,0.00,Wunderground v.1.15,2013-03-18 23:04:00,
2013-03-18 18:08:00,17.8,11.8,29.86,NW,311,19.0,27.0,77,0.00,,,0.00,Wunderground v.1.15,2013-03-18 23:08:00,
2013-03-18 18:12:00,17.8,12.1,29.86,NW,306,19.0,27.0,78,0.00,,,0.00,Wunderground v.1.15,2013-03-18 23:12:00,
2013-03-18 18:18:00,17.6,12.5,29.86,NW,321,19.0,27.0,80,0.00,,,0.00,Wunderground v.1.15,2013-03-18 23:18:00,
2013-03-18 18:20:00,17.6,12.5,29.86,NW,316,19.0,19.0,80,0.00,,,0.00,Wunderground v.1.15,2013-03-18 23:20:00,
2013-03-18 18:24:00,17.8,13.0,29.86,WNW,294,19.0,27.0,81,0.00,,,0.00,Wunderground v.1.15,2013-03-18 23:24:00,
2013-03-18 18:26:00,17.9,13.1,29.86,WNW,293,19.0,27.0,81,0.00,,,0.00,Wunderground v.1.15,2013-03-18 23:26:00,
2013-03-18 18:32:00,17.4,12.6,29.86,NW,306,17.0,20.0,81,0.00,,,0.00,Wunderground v.1.15,2013-03-18 23:32:00,
2013-03-18 18:38:00,16.9,11.5,29.87,WNW,299,17.0,27.0,79,0.00,,,0.00,Wunderground v.1.15,2013-03-18 23:38:00,
2013-03-18 18:40:00,16.8,11.4,29.87,WNW,302,17.0,27.0,79,0.00,,,0.00,Wunderground v.1.15,2013-03-18 23:40:00,
2013-03-18 18:46:00,16.8,10.8,29.87,WNW,300,18.0,27.0,77,0.00,,,0.00,Wunderground v.1.15,2013-03-18 23:46:00,
2013-03-18 18:48:00,16.8,11.1,29.87,WNW,300,19.0,27.0,78,0.00,,,0.00,Wunderground v.1.15,2013-03-18 23:48:00,
2013-03-18 18:52:00,17.1,10.5,29.87,NW,308,20.0,27.0,75,0.00,,,0.00,Wunderground v.1.15,2013-03-18 23:52:00,
2013-03-18 18:58:00,17.1,11.1,29.87,WNW,286,19.0,27.0,77,0.00,,,0.00,Wunderground v.1.15,2013-03-18 23:58:00,
2013-03-18 19:00:00,17.0,11.0,29.87,NW,308,18.0,27.0,77,0.00,,,0.00,Wunderground v.1.15,2013-03-19 00:00:00,
2013-03-18 19:04:00,16.9,10.6,29.87,WNW,291,18.0,27.0,76,0.00,,,0.00,Wunderground v.1.15,2013-03-19 00:04:00,
2013-03-18 19:06:00,17.0,10.1,29.87,WNW,288,18.0,27.0,74,0.00,,,0.00,Wunderground v.1.15,2013-03-19 00:06:00,
2013-03-18 19:12:00,16.7,9.5,29.88,WNW,288,20.0,27.0,73,0.00,,,0.00,Wunderground v.1.15,2013-03-19 00:12:00,
2013-03-18 19:14:00,16.6,9.1,29.88,WNW,288,20.0,27.0,72,0.00,,,0.00,Wunderground v.1.15,2013-03-19 00:14:00,
2013-03-18 19:20:00,16.3,8.5,29.88,NW,313,20.0,27.0,71,0.00,,,0.00,Wunderground v.1.15,2013-03-19 00:20:00,
2013-03-18 19:24:00,16.1,8.3,29.88,NW,304,21.0,27.0,71,0.00,,,0.00,Wunderground v.1.15,2013-03-19 00:24:00,
2013-03-18 19:26:00,16.0,8.6,29.89,WNW,302,21.0,27.0,72,0.00,,,0.00,Wunderground v.1.15,2013-03-19 00:26:00,
2013-03-18 19:30:00,15.9,8.5,29.89,WNW,291,19.0,27.0,72,0.00,,,0.00,Wunderground v.1.15,2013-03-19 00:30:00,
2013-03-18 19:36:00,15.9,8.5,29.89,NW,322,20.0,27.0,72,0.00,,,0.00,Wunderground v.1.15,2013-03-19 00:36:00,
2013-03-18 19:42:00,15.8,8.7,29.89,WNW,300,20.0,27.0,73,0.00,,,0.00,Wunderground v.1.15,2013-03-19 00:42:00,
2013-03-18 19:48:00,15.6,8.5,29.90,West,280,18.0,27.0,73,0.00,,,0.00,Wunderground v.1.15,2013-03-19 00:48:00,
2013-03-18 19:50:00,15.6,8.5,29.90,WNW,300,17.0,27.0,73,0.00,,,0.00,Wunderground v.1.15,2013-03-19 00:50:00,
2013-03-18 19:54:00,15.6,8.2,29.90,NW,321,18.0,27.0,72,0.00,,,0.00,Wunderground v.1.15,2013-03-19 00:54:00,
2013-03-18 19:58:00,15.6,7.9,29.90,NW,308,19.0,27.0,71,0.00,,,0.00,Wunderground v.1.15,2013-03-19 00:58:00,
2013-03-18 20:02:00,15.6,8.2,29.90,WNW,283,20.0,27.0,72,0.00,,,0.00,Wunderground v.1.15,2013-03-19 01:02:00,
2013-03-18 20:04:00,15.5,8.4,29.90,WNW,297,20.0,27.0,73,0.00,,,0.00,Wunderground v.1.15,2013-03-19 01:04:00,
2013-03-18 20:08:00,15.4,8.3,29.91,WNW,295,20.0,27.0,73,0.00,,,0.00,Wunderground v.1.15,2013-03-19 01:08:00,
2013-03-18 20:10:00,15.4,8.3,29.91,NW,313,19.0,19.0,73,0.00,,,0.00,Wunderground v.1.15,2013-03-19 01:10:00,
2013-03-18 20:14:00,15.4,8.3,29.91,WNW,293,19.0,27.0,73,0.00,,,0.00,Wunderground v.1.15,2013-03-19 01:14:00,
2013-03-18 20:16:00,15.3,8.2,29.91,WNW,293,18.0,27.0,73,0.00,,,0.00,Wunderground v.1.15,2013-03-19 01:16:00,
2013-03-18 20:18:00,15.3,8.5,29.91,WNW,293,17.0,27.0,74,0.00,,,0.00,Wunderground v.1.15,2013-03-19 01:18:00,
2013-03-18 20:22:00,15.2,8.4,29.92,WNW,293,17.0,27.0,74,0.00,,,0.00,Wunderground v.1.15,2013-03-19 01:22:00,
2013-03-18 20:28:00,15.1,8.6,29.92,West,281,16.0,27.0,75,0.00,,,0.00,Wunderground v.1.15,2013-03-19 01:28:00,
2013-03-18 20:34:00,15.1,8.6,29.92,WNW,298,15.0,22.0,75,0.00,,,0.00,Wunderground v.1.15,2013-03-19 01:34:00,
2013-03-18 20:36:00,15.1,8.6,29.92,NW,311,16.0,27.0,75,0.00,,,0.00,Wunderground v.1.15,2013-03-19 01:36:00,
2013-03-18 20:42:00,15.1,8.9,29.92,WNW,297,17.0,19.0,76,0.00,,,0.00,Wunderground v.1.15,2013-03-19 01:42:00,
2013-03-18 20:44:00,15.0,8.8,29.92,WNW,288,16.0,21.0,76,0.00,,,0.00,Wunderground v.1.15,2013-03-19 01:44:00,
2013-03-18 20:48:00,15.0,9.1,29.92,WNW,293,16.0,27.0,77,0.00,,,0.00,Wunderground v.1.15,2013-03-19 01:48:00,
2013-03-18 20:50:00,15.0,9.1,29.93,WNW,293,16.0,16.0,77,0.00,,,0.00,Wunderground v.1.15,2013-03-19 01:50:00,
2013-03-18 20:52:00,14.9,9.0,29.93,NW,305,16.0,27.0,77,0.00,,,0.00,Wunderground v.1.15,2013-03-19 01:52:00,
2013-03-18 20:54:00,14.9,8.7,29.93,NNW,328,16.0,27.0,76,0.00,,,0.00,Wunderground v.1.15,2013-03-19 01:54:00,
2013-03-18 20:58:00,14.9,8.7,29.93,WNW,302,16.0,27.0,76,0.00,,,0.00,Wunderground v.1.15,2013-03-19 01:58:00,
2013-03-18 21:02:00,14.9,8.7,29.93,WNW,293,17.0,27.0,76,0.00,,,0.00,Wunderground v.1.15,2013-03-19 02:02:00,
2013-03-18 21:04:00,14.9,8.7,29.93,NW,318,17.0,27.0,76,0.00,,,0.00,Wunderground v.1.15,2013-03-19 02:04:00,
2013-03-18 21:08:00,14.9,8.7,29.94,WNW,303,17.0,27.0,76,0.00,,,0.00,Wunderground v.1.15,2013-03-19 02:08:00,
2013-03-18 21:12:00,14.9,8.7,29.94,NW,304,17.0,27.0,76,0.00,,,0.00,Wunderground v.1.15,2013-03-19 02:12:00,
2013-03-18 21:14:00,14.9,8.7,29.94,WNW,284,17.0,27.0,76,0.00,,,0.00,Wunderground v.1.15,2013-03-19 02:14:00,
2013-03-18 21:20:00,14.9,8.7,29.94,WNW,295,17.0,17.0,76,0.00,,,0.00,Wunderground v.1.15,2013-03-19 02:20:00,
2013-03-18 21:24:00,14.8,8.6,29.94,WNW,298,17.0,27.0,76,0.00,,,0.00,Wunderground v.1.15,2013-03-19 02:24:00,
2013-03-18 21:26:00,14.8,8.6,29.94,WNW,303,16.0,27.0,76,0.00,,,0.00,Wunderground v.1.15,2013-03-19 02:26:00,
2013-03-18 21:30:00,14.7,8.5,29.95,WNW,285,17.0,27.0,76,0.00,,,0.00,Wunderground v.1.15,2013-03-19 02:30:00,
2013-03-18 21:32:00,14.7,8.5,29.95,WNW,303,17.0,27.0,76,0.00,,,0.00,Wunderground v.1.15,2013-03-19 02:32:00,
2013-03-18 21:38:00,14.6,8.4,29.95,NW,312,17.0,27.0,76,0.00,,,0.00,Wunderground v.1.15,2013-03-19 02:38:00,
2013-03-18 21:42:00,14.6,8.4,29.96,WNW,300,17.0,27.0,76,0.00,,,0.00,Wunderground v.1.15,2013-03-19 02:42:00,
2013-03-18 21:44:00,14.5,8.3,29.96,NW,307,17.0,27.0,76,0.00,,,0.00,Wunderground v.1.15,2013-03-19 02:44:00,
2013-03-18 21:48:00,14.5,8.0,29.96,WNW,295,17.0,27.0,75,0.00,,,0.00,Wunderground v.1.15,2013-03-19 02:48:00,
2013-03-18 21:52:00,14.4,8.2,29.96,WNW,295,16.0,27.0,76,0.00,,,0.00,Wunderground v.1.15,2013-03-19 02:52:00,
2013-03-18 21:54:00,14.4,8.5,29.96,NW,309,16.0,27.0,77,0.00,,,0.00,Wunderground v.1.15,2013-03-19 02:54:00,
2013-03-18 21:56:00,14.3,8.1,29.96,WNW,301,16.0,27.0,76,0.00,,,0.00,Wunderground v.1.15,2013-03-19 02:56:00,
2013-03-18 22:00:00,14.3,8.4,29.96,NW,304,15.0,15.0,77,0.00,,,0.00,Wunderground v.1.15,2013-03-19 03:00:00,
2013-03-18 22:02:00,14.3,8.1,29.96,NW,316,15.0,27.0,76,0.00,,,0.00,Wunderground v.1.15,2013-03-19 03:02:00,
2013-03-18 22:08:00,14.2,8.0,29.96,WNW,298,15.0,27.0,76,0.00,,,0.00,Wunderground v.1.15,2013-03-19 03:08:00,
2013-03-18 22:10:00,14.2,8.0,29.96,WNW,298,16.0,27.0,76,0.00,,,0.00,Wunderground v.1.15,2013-03-19 03:10:00,
2013-03-18 22:12:00,14.2,8.0,29.96,NW,321,16.0,27.0,76,0.00,,,0.00,Wunderground v.1.15,2013-03-19 03:12:00,
2013-03-18 22:14:00,14.2,8.0,29.96,NW,321,16.0,27.0,76,0.00,,,0.00,Wunderground v.1.15,2013-03-19 03:14:00,
2013-03-18 22:18:00,14.1,7.9,29.96,WNW,295,17.0,27.0,76,0.00,,,0.00,Wunderground v.1.15,2013-03-19 03:18:00,
2013-03-18 22:22:00,14.1,7.9,29.96,NW,304,17.0,27.0,76,0.00,,,0.00,Wunderground v.1.15,2013-03-19 03:22:00,
2013-03-18 22:24:00,14.1,7.9,29.96,NW,304,17.0,27.0,76,0.00,,,0.00,Wunderground v.1.15,2013-03-19 03:24:00,
2013-03-18 22:28:00,14.1,8.2,29.96,WNW,295,17.0,27.0,77,0.00,,,0.00,Wunderground v.1.15,2013-03-19 03:28:00,
2013-03-18 22:32:00,14.0,8.1,29.97,NW,315,17.0,27.0,77,0.00,,,0.00,Wunderground v.1.15,2013-03-19 03:32:00,
2013-03-18 22:33:00,14.0,7.8,29.96,WNW,293,17.0,27.0,76,0.00,,,0.00,Wunderground v.1.15,2013-03-19 03:33:00,
2013-03-18 22:38:00,14.0,7.8,29.97,WNW,301,17.0,27.0,76,0.00,,,0.00,Wunderground v.1.15,2013-03-19 03:38:00,
2013-03-18 22:40:00,14.0,7.8,29.97,NW,308,16.0,27.0,76,0.00,,,0.00,Wunderground v.1.15,2013-03-19 03:40:00,
2013-03-18 22:42:00,14.0,8.1,29.97,NW,312,16.0,27.0,77,0.00,,,0.00,Wunderground v.1.15,2013-03-19 03:42:00,
2013-03-18 22:44:00,14.0,7.8,29.97,WNW,303,16.0,27.0,76,0.00,,,0.00,Wunderground v.1.15,2013-03-19 03:44:00,
2013-03-18 22:50:00,13.9,8.0,29.97,WNW,297,16.0,27.0,77,0.00,,,0.00,Wunderground v.1.15,2013-03-19 03:50:00,
2013-03-18 22:56:00,13.9,8.0,29.97,WNW,300,15.0,27.0,77,0.00,,,0.00,Wunderground v.1.15,2013-03-19 03:56:00,
2013-03-18 22:58:00,13.9,8.0,29.97,WNW,301,15.0,27.0,77,0.00,,,0.00,Wunderground v.1.15,2013-03-19 03:58:00,
2013-03-18 23:00:00,13.8,7.9,29.97,NW,311,14.0,27.0,77,0.00,,,0.00,Wunderground v.1.15,2013-03-19 04:00:00,
2013-03-18 23:02:00,13.8,7.9,29.97,WNW,296,15.0,27.0,77,0.00,,,0.00,Wunderground v.1.15,2013-03-19 04:02:00,
2013-03-18 23:04:00,13.8,7.9,29.97,WNW,288,14.0,27.0,77,0.00,,,0.00,Wunderground v.1.15,2013-03-19 04:04:00,
2013-03-18 23:06:00,13.7,8.1,29.97,WNW,300,14.0,27.0,78,0.00,,,0.00,Wunderground v.1.15,2013-03-19 04:06:00,
2013-03-18 23:10:00,13.7,7.8,29.97,NW,311,14.0,27.0,77,0.00,,,0.00,Wunderground v.1.15,2013-03-19 04:10:00,
2013-03-18 23:12:00,13.7,8.1,29.97,WNW,301,14.0,27.0,78,0.00,,,0.00,Wunderground v.1.15,2013-03-19 04:12:00,
2013-03-18 23:14:00,13.7,8.1,29.97,WNW,287,14.0,27.0,78,0.00,,,0.00,Wunderground v.1.15,2013-03-19 04:14:00,
2013-03-18 23:16:00,13.7,8.1,29.97,NNW,333,14.0,27.0,78,0.00,,,0.00,Wunderground v.1.15,2013-03-19 04:16:00,
2013-03-18 23:22:00,13.6,8.3,29.97,WNW,301,13.0,15.0,79,0.00,,,0.00,Wunderground v.1.15,2013-03-19 04:22:00,
2013-03-18 23:24:00,13.6,8.0,29.97,NW,308,14.0,27.0,78,0.00,,,0.00,Wunderground v.1.15,2013-03-19 04:24:00,
2013-03-18 23:28:00,13.5,8.2,29.97,NW,305,14.0,27.0,79,0.00,,,0.00,Wunderground v.1.15,2013-03-19 04:28:00,
2013-03-18 23:32:00,13.5,7.9,29.97,WNW,302,14.0,27.0,78,0.00,,,0.00,Wunderground v.1.15,2013-03-19 04:32:00,
2013-03-18 23:34:00,13.5,7.9,29.97,NW,304,14.0,27.0,78,0.00,,,0.00,Wunderground v.1.15,2013-03-19 04:34:00,
2013-03-18 23:36:00,13.5,7.9,29.97,NW,317,14.0,27.0,78,0.00,,,0.00,Wunderground v.1.15,2013-03-19 04:36:00,
2013-03-18 23:38:00,13.5,7.9,29.97,WNW,300,15.0,27.0,78,0.00,,,0.00,Wunderground v.1.15,2013-03-19 04:38:00,
2013-03-18 23:40:00,13.4,8.1,29.96,NW,304,15.0,27.0,79,0.00,,,0.00,Wunderground v.1.15,2013-03-19 04:40:00,
2013-03-18 23:42:00,13.4,8.1,29.97,WNW,293,15.0,27.0,79,0.00,,,0.00,Wunderground v.1.15,2013-03-19 04:42:00,
2013-03-18 23:46:00,13.4,7.8,29.96,WNW,299,16.0,27.0,78,0.00,,,0.00,Wunderground v.1.15,2013-03-19 04:46:00,
2013-03-18 23:48:00,13.4,8.1,29.96,NW,311,15.0,27.0,79,0.00,,,0.00,Wunderground v.1.15,2013-03-19 04:48:00,
2013-03-18 23:52:00,13.3,8.0,29.96,WNW,301,15.0,27.0,79,0.00,,,0.00,Wunderground v.1.15,2013-03-19 04:52:00,
2013-03-18 23:54:00,13.3,8.0,29.96,WNW,283,14.0,27.0,79,0.00,,,0.00,Wunderground v.1.15,2013-03-19 04:54:00,
2013-03-18 23:58:00,13.2,7.9,29.96,WNW,303,14.0,27.0,79,0.00,,,0.00,Wunderground v.1.15,2013-03-19 04:58:00,